Weather Roundup
Issued by NWS Chicago, IL

Home | Current Version | Previous Version | Graphics & Text | Print | Product List | Glossary On
Versions: 1 2 3 4 5 6 7 8 9 10 11 12 13 14 15 16 17 18 19 20 21 22 23 24 25 26 27 28 29 30 31 32 33 34 35 36 37 38 39 40 41 42 43 44 45 46 47 48 49 50
000
NZUS59 KLOT 301801
HRRLOT

CHICAGO AREA WEATHER ROUNDUP
NATIONAL WEATHER SERVICE CHICAGO/ROMEOVILLE IL
100 PM CDT MON MAR 30 2015

NOTE: "FAIR" INDICATES FEW OR NO CLOUDS BELOW 12,000 FEET WITH NO
SIGNIFICANT WEATHER AND/OR OBSTRUCTIONS TO VISIBILITY.

* THESE STATIONS ARE NOT UNDER NWS QUALITY CONTROL. THEY ALSO MAY NOT
  REPORT WEATHER SUCH AS PRECIPITATION OR FOG.

ILZ005-006-012>014-019>023-301900-
NORTHEAST ILLINOIS

CITY           SKY/WX    TMP DP  RH WIND       PRES   REMARKS
OHARE          PTSUNNY   57  28  33 W17       30.01F
6HR MIN TEMP:  34; 6HR MAX TEMP:  58;

MIDWAY         PTSUNNY   58  27  30 W18G28    30.03F
6HR MIN TEMP:  37; 6HR MAX TEMP:  60;

AURORA         SUNNY     60  30  32 W17       30.02F
6HR MIN TEMP:  30; 6HR MAX TEMP:  60;

WAUKEGAN         N/A     56  27  32 VRB7G24   29.98F
6HR MIN TEMP:  35; 6HR MAX TEMP:  57;

DUPAGE AIRPORT SUNNY     58  30  34 W17G23    30.01F
6HR MIN TEMP:  33; 6HR MAX TEMP:  58;

WHEELING       PTSUNNY   58  26  29 W15       30.02F
6HR MIN TEMP:  36; 6HR MAX TEMP:  58;

NORTHERLY IS     N/A     56  24  29 W7          N/A
$$

WIZ051-052-058>065-066-070>072-301900-
SOUTHEAST WISCONSIN

CITY           SKY/WX    TMP DP  RH WIND       PRES   REMARKS
MILWAUKEE      PTSUNNY   57  25  29 NW13G21   29.97F
6HR MIN TEMP:  37; 6HR MAX TEMP:  57;

KENOSHA*       MOSUNNY   58  32  37 W17       29.98F
RACINE*        PTSUNNY   58  27  30 W13       29.99F
WAUKESHA       PTSUNNY   54  28  37 W12G21    29.97F
$$

INZ001>003-010>013-019-020-301900-
NORTHWEST INDIANA

CITY           SKY/WX    TMP DP  RH WIND       PRES   REMARKS
GARY*          MOSUNNY   59  16  18 W17       30.04F
MICHIGAN CITY* NOT AVBL
RENSSELAER*    NOT AVBL
$$

LMZ740>746-301900-
SOUTHERN LAKE MICHIGAN

STATION/POSITION TIME  SKY/WX   TEMP WIND        PRES    VSBY
                                AIR  DIR/SP/G
                 (UTC)          (F)  (DEG/KT/KT) (MB)    (MI)
HARRISON CRIB    1700            51  280/ 13/ 17   N/A
BURNHAM HARBOR   1800            56  300/ 15/ 15   N/A
CALUMET HARBOR   1700            55  240/  8/ 16 1016.0F
BURNS HARBOR     1700            44  260/  8/ 10 1018.3F
MICHIGAN CITY    1700            43  220/ 15/ 15   N/A
$$

ABBREVIATIONS USED IN REMARKS
   TC - TEMPERATURE IN CELSIUS
  WCI - WIND CHILL INDEX
   HX - HEAT INDEX
  VSB - VISIBILITY
$$


USA.gov is the U.S. government's official web portal to all federal, state and local government web resources and services.